COSMOS 2500 [GLONASS-M] 1 40001U 14032A 21111.52912839 -.00000064 00000-0 00000-0 0 9991 2 40001 65.7629 17.1619 0004623 210.8551 263.9146 2.13102729 53336 FREGAT R/B 1 40002U 14032B 21110.21599395 -.00000066 00000-0 00000-0 0 9997 2 40002 65.8345 20.6407 0082028 98.4455 262.5121 2.09160297 52320